Погода в Шубаркудуке

Казахстан     49°08′45″N   56°29′11″E
темп.,
°C
ветер,
м/с
пор.,
м/с
влажн.,
%
обл.,
%
осадки,
мм/ч
давл.,
гПа
погр.,
м
19 мая, ср
ср1923:00+22всв22432 0.0 101211
02:00+19всв5957100 0.2 1012146
05:00+18сз446022 0.3 101252
08:00+22св46501 0.0 1012332
11:00+26всв66371 0.0 10121099
14:00+29всв86325 0.0 10122512
17:00+26всв11103847 0.0 10121410
20:00+21ю1258100 0.8 1014169
20 мая, чт
чт2023:00+17вюв61174100 1.2 1014327
02:00+18в714675 0.1 1014582
05:00+17в7147251 0.1 1014476
08:00+18вюв9146597 0.1 1016635
11:00+24юв91048100 0.1 10161142
14:00+27юв8838100 0.0 10151757
17:00+28юв7736100 0.0 10152256
20:00+25вюв61145100 0.0 1015356
21 мая, пт
пт2123:00+18ссв2383100 4.7 101787
02:00+18вюв61173100 1.6 1016231
05:00+17св2279100 2.3 101850
08:00+19вюв61165100 0.9 1018267
11:00+25юв454021 0.9 1018916
14:00+29юв552826 0.0 10172097
17:00+29ююв45275 0.0 10172321
20:00+26всв343623 0.0 101754
22 мая, сб
сб2223:00+23в4935100 0.0 1018232
02:00+21в4936100 0.0 1018201
05:00+19в44385 0.0 101961
08:00+22вюв463466 0.0 1020213
11:00+28ююв45266 0.0 1019772
14:00+31ю4425100 0.0 10191650
17:00+32ю24235 0.0 10182846
20:00+29вюв33313 0.0 101728
23 мая, вс
вс2323:00+25вюв33320 0.0 101826
02:00+22юв45385 0.0 101861
05:00+20ю33327 0.0 101918
08:00+24ююз35295 0.0 1021176
11:00+30ююз452112 0.0 1021791
14:00+33ююз331712 0.0 10201850
17:00+33ююв221799 0.0 10192753
20:00+30ююв23285 0.0 101917